Mc Donough, Georgia, United States
Lat: 33.45N, Lon: 84.15W
Wx Zone: GAZ057
Local Info
Past Weather Observations for Today

NOTE: This archive is for the closest National Weather Service station to Mc Donough. Information may differ from the station used for current weather conditions.

Click here for Long-term Archive

Time Weather Temperature Dewpoint Humidity Pressure Winds Precip Visibility
19:52
Mostly Cloudy
52°F / 11°C 45°F / 7°C 77% 29.92 in
(1013 mb)
NW 19.6 mph
(NW 32 kph)
- 10SM
18:52
Mostly Cloudy
54°F / 12°C 45°F / 7°C 72% 29.92 in
(1013 mb)
W 10.4 mph
(W 17 kph)
0.00 in
(0.00 mm)
10SM
17:52
Mostly Cloudy
57°F / 14°C 43°F / 6°C 59% 29.89 in
(1012 mb)
NW 9.2 mph
(NW 15 kph)
- 10SM
16:52
Mostly Cloudy
59°F / 15°C 43°F / 6°C 55% 29.89 in
(1012 mb)
NW 10.4 mph
(NW 17 kph)
- 10SM
15:52
Mostly Cloudy
61°F / 16°C 43°F / 6°C 52% 29.89 in
(1012 mb)
NW 11.5 mph
(NW 19 kph)
- 10SM
14:52
Mostly Cloudy
61°F / 16°C 41°F / 5°C 48% 29.89 in
(1012 mb)
NNW 13.8 mph
(NNW 22 kph)
- 10SM
13:52
Mostly Cloudy
57°F / 14°C 43°F / 6°C 59% 29.92 in
(1013 mb)
NW 12.7 mph
(NW 20 kph)
- 10SM
12:52
Mostly Cloudy
61°F / 16°C 43°F / 6°C 52% 29.92 in
(1013 mb)
NW 12.7 mph
(NW 20 kph)
- 10SM
11:52
Mostly Cloudy
59°F / 15°C 41°F / 5°C 51% 29.92 in
(1013 mb)
NW 9.2 mph
(NW 15 kph)
- 10SM
10:52
Partly Cloudy
59°F / 15°C 41°F / 5°C 51% 29.95 in
(1014 mb)
NW 8.1 mph
(NW 13 kph)
- 10SM
09:52
Partly Cloudy
55°F / 13°C 43°F / 6°C 63% 29.95 in
(1014 mb)
NNW 5.8 mph
(NNW 9 kph)
- 10SM
08:52
Partly Cloudy
52°F / 11°C 43°F / 6°C 72% 29.95 in
(1014 mb)
NW 11.5 mph
(NW 19 kph)
- 10SM
07:52
Mostly Cloudy
48°F / 9°C 39°F / 4°C 71% 29.95 in
(1014 mb)
NNE 6.9 mph
(NNE 11 kph)
- 10SM
06:52
Mostly Cloudy
45°F / 7°C 39°F / 4°C 81% 29.95 in
(1014 mb)
NW 5.8 mph
(NW 9 kph)
- 10SM
05:52
Mostly Cloudy
45°F / 7°C 39°F / 4°C 81% 29.95 in
(1014 mb)
NW 9.2 mph
(NW 15 kph)
- 10SM
04:52
Partly Cloudy
45°F / 7°C 39°F / 4°C 81% 29.95 in
(1014 mb)
NW 9.2 mph
(NW 15 kph)
- 10SM
03:52
Partly Cloudy
45°F / 7°C 39°F / 4°C 81% 29.95 in
(1014 mb)
NW 3.5 mph
(NW 6 kph)
- 10SM
02:52
Partly Cloudy
46°F / 8°C 39°F / 4°C 76% 29.95 in
(1014 mb)
WNW 8.1 mph
(WNW 13 kph)
- 10SM
01:52
Partly Cloudy
46°F / 8°C 41°F / 5°C 82% 29.98 in
(1015 mb)
NW 6.9 mph
(NW 11 kph)
- 10SM
00:52
Partly Cloudy
48°F / 9°C 41°F / 5°C 76% 29.98 in
(1015 mb)
NW 6.9 mph
(NW 11 kph)
- 10SM
Time Weather Temperature Dewpoint Humidity Pressure Winds Precip Visibility


Weather for websites

WeatherForYou.com, LLC is not responsible for any damages or problems caused by this service. Current weather conditions are obtained from the closest station including government and personal stations which may have varying degrees of accuracy. Weather forecasts are derived from the NOAA NDFD. Like all things, this site belongs to Jesus Christ... He just trusts me to maintain it. If you have any questions or comments email webmaster@weatherforyou.com

Copyright © 2014, WeatherForYou.com LLC. All rights reserved.